Regional Weather Roundup
Issued by NWS Mobile, AL

Home | Current Version | Previous Version | Text Only | Print | Product List | Glossary On
Versions: 1 2 3 4 5 6 7 8 9 10 11 12 13 14 15 16 17 18 19 20 21 22 23 24 25 26 27 28 29 30 31 32 33 34 35 36 37 38 39 40 41 42 43 44 45 46 47 48 49 50
000
ASUS44 KMOB 162112
RWRMOB
REGIONAL WEATHER ROUNDUP
NATIONAL WEATHER SERVICE MOBILE AL
400 PM CDT WED AUG 16 2017

NOTE: "FAIR" INDICATES FEW OR NO CLOUDS BELOW 12,000 FEET WITH NO
      SIGNIFICANT WEATHER AND/OR OBSTRUCTIONS TO VISIBILITY.

  * THESE STATIONS ARE PART OF THE UNIVERSITY OF SOUTH ALABAMA
    MESONET AND ARE NOT UNDER NWS OR FAA QUALITY CONTROL.

ALZ061>064-162200-
COASTAL ALABAMA

CITY           SKY/WX    TMP DP  RH WIND       PRES   REMARKS
MOBILE REG APT PTSUNNY   89  74  60 S9        30.04F HX  98
BROOKLEY FIELD MOSUNNY   88  77  69 VRB3      30.04F HX 100
USA CAMPUS*      N/A     86  79  79 CALM      30.04S HX  99
DOG RIVER*     NOT AVBL


CITY           SKY/WX    TMP DP  RH WIND       PRES   REMARKS
GULF SHORES    MOSUNNY   89  77  67 SW9       30.04S HX 100

$$

ALZ051>060-162200-
INTERIOR SOUTHWEST AND SOUTH CENTRAL ALABAMA

CITY           SKY/WX    TMP DP  RH WIND       PRES   REMARKS
GREENVILLE     CLOUDY    92  73  53 N5        30.02F HX 100
EVERGREEN      SUNNY     92  74  55 VRB3      30.02F HX 101
ATMORE*        NOT AVBL
ANDALUSIA/OPP    N/A     95  73  48 W6        30.02F HX 104
ANDALUSIA*       N/A     91  73  55 W6        30.03F HX 100
FLORALA APT    NOT AVBL
FLORALA*         N/A     90  79  70 CALM      30.71S HX 105

$$

FLZ001>006-162200-
WESTERN FLORIDA PANHANDLE

CITY           SKY/WX    TMP DP  RH WIND       PRES   REMARKS
PENSACOLA      SUNNY     90  75  61 SW10      30.04S HX 100
NAS PENSACOLA  PTSUNNY   88  77  69 S7        30.03F HX 100
MILTON         PTSUNNY   90  76  63 VRB7      30.03S HX 101
WHTNG S FIELD  PTSUNNY   93  77  59 W5        30.03S HX 107


CITY           SKY/WX    TMP DP  RH WIND       PRES   REMARKS
JAY*             N/A     88  75  66 W8        30.02S HX  97
DUKE FIELD     MOSUNNY   87  74  65 S7        30.03F HX  96
CRESTVIEW      MOSUNNY   89  74  60 S7        30.03F HX  98
VALPARAISO     MOSUNNY   88  75  64 CALM      30.02F HX  97
DESTIN         SUNNY     92  74  55 W8        30.02F HX 101

$$

MSZ076-079-162200-
INTERIOR SOUTHEAST MISSISSIPPI

CITY           SKY/WX    TMP DP  RH WIND       PRES   REMARKS
LEAKESVILLE*     N/A     84  75  74 W3        30.03
AGRICOLA*        N/A     86  77  74 CALM      30.03  HX  97

$$

MARINE OBSERVATIONS

STATION/POSITION TIME  TEMP    WIND        PRES    WAVE
                       AIR SEA DIR/SP/G            HT/PER
                 (UTC) (F)     (DEG/KT/KT) (MB)    (FT/S)
PASCAGOULA       2048   88     230/  5/  8 1017.2F
PETIT BOIS ISLND 2048   87     220/  7/  9 1018.1F
GRAND BAY        1945   88     200/  7     1018.0F
KATRINA CUT      2030   85     210/  8     1016.9F
CEDAR POINT      2030   87     210/  8     1017.3F
E DAUPHIN ISLAND 2000   87     190/  5/  7 1016.9F
USCG MOBILE BAY  2048   87 85  150/  5/  8 1017.7F
STATE DOCKS      2048   89 86              1016.8F
WEEKS BAY        1945   90                   N/A
FORT MORGAN      2048   88     220/  7/  9   N/A
12 S ORANGE BCH  2050   86 90  210/  8/ 10 1016.7F   1/ 5
PENSACOLA BAY    2048   90 88              1017.3F
64 S DAUPHIN ISL 2050   87 88  200/  2/  6 1017.3F   2/ 5
67 S FORT MORGAN 2030   86     230/  4     1017.3F

$$

SELECTED LOCATIONS ACROSS THE REGION

CITY           SKY/WX    TMP DP  RH WIND       PRES   REMARKS
NEW ORLEANS    PTSUNNY   91  72  53 S9        30.03R HX  98
GULFPORT       CLOUDY    88  75  65 N5        30.03S HX  97
PASCAGOULA AP  SUNNY     90  74  59 VRB3      30.03F HX  99
PASCAGOULA*      N/A     88  79  74 SW6         N/A  HX 102
HATTIESBURG    PTSUNNY   83  77  82 SE8       30.03S
LAUREL         LGT RAIN  89  77  67 W7        30.03S HX 101
MERIDIAN       CLOUDY    88  75  65 N8        30.02S HX  97
JACKSON        PTSUNNY   89  76  65 SW6       30.03R THUNDER HX 100
MONTGOMERY     SUNNY     92  71  50 VRB3      30.02F HX  98
TROY           MOSUNNY   91  74  57 NW3       30.03F HX 100
ASHFORD*         N/A     91  73  55 W6        30.03F HX 100
DOTHAN         MOSUNNY   91  75  59 W5        30.05F HX 101
PANAMA CITY    MOSUNNY   88  75  65 W8        30.01F HX  97

$$




USA.gov is the U.S. government's official web portal to all federal, state and local government web resources and services.